Dewpoint
-1 -0 0 1 1 -0 -5 -6 -9 -13 -14 -17 -16 -16 -17 -14 -11 -8 -10 -11 -9 -10 -6 -5 -4 -3 -3 -2 -2 -2 0 -2 -3 -2 -4 -3 -2 -2 -2 -2 -1 0 -0 -2 -4
-4 -1 -0 0 -0 -3 -6 -7 -9 -12 -14 -15 -16 -7 -6 -9 -10 -10 -8 -11 -10 -10 -5 -4 -3 -3 -2 -1 -1 -1 0 -2 -3 -4 -3 -3 -2 -3 -2 -2 -2 -2 -1 -2 -3
-11 -11 -8 -5 -5 -7 -7 -10 -15 -14 -15 -13 -8 -6 -10 -7 -8 -8 -9 -10 -9 -10 -7 -5 -4 -4 -4 -3 -3 -1 -2 -2 -2 -3 -3 -3 -3 -3 -3 -2 -3 -3 -2 -2 -2
-3 -9 -11 -11 -9 -9 -11 -14 -14 -15 -16 -9 -9 -10 -7 -8 -5 -8 -10 -10 -8 -8 -7 -6 -5 -4 -3 -4 -5 -4 -4 -4 -4 -2 -2 -3 -4 -4 -3 -5 -5 -4 -3 -2 -3
1 -0 -5 -11 -12 -10 -10 -13 -16 -15 -9 -8 -10 -8 -10 -5 -6 -7 -8 -11 -9 -8 -7 -7 -5 -4 -3 -5 -5 -4 -5 -4 -4 -3 -2 -4 -5 -5 -5 -5 -4 -6 -6 -5 -3
1 0 -1 -1 -7 -12 -15 -16 -15 -13 -13 -7 -7 -9 -9 -7 -6 -6 -8 -9 -9 -8 -8 -7 -5 -5 -5 -5 -5 -6 -5 -4 -4 -4 -3 -3 -4 -2 -3 -5 -3 -3 -4 -4 -5
-0 2 0 -1 -1 -4 -11 -13 -13 -13 -12 -12 -7 -8 -7 -6 -7 -6 -7 -8 -9 -9 -8 -8 -6 -5 -4 -4 -4 -5 -5 -6 -6 -5 -4 -2 -2 -1 -4 -4 -3 -4 -4 -3 -4
-7 -3 2 -1 -1 -1 -2 -11 -12 -12 -12 -12 -8 -7 -6 -7 -7 -6 -6 -7 -8 -8 -9 -8 -6 -5 -3 -5 -4 -4 -4 -3 -5 -4 -3 -2 -4 -6 -6 -3 -3 -3 -4 -5 -5
-13 -11 -3 -0 -1 -3 -4 -3 -2 -6 -6 -12 -12 -9 -6 -6 -5 -5 -6 -6 -7 -7 -8 -9 -6 -3 -4 -4 -4 -3 -4 -3 -4 -3 -3 -2 -3 -5 -5 -4 -4 -4 -3 -2 -3
-15 -15 -14 -1 -1 -3 -6 -4 -3 -2 -1 -4 -11 -8 -8 -6 -5 -5 -6 -5 -7 -7 -5 -5 -3 -4 -4 -4 -2 -3 -3 -5 -4 -5 -3 -2 -2 -4 -5 -4 -4 -5 -4 -3 -1
-14 -15 -16 -13 -0 -2 -6 -4 -4 -3 -5 -5 -7 -8 -6 -7 -6 -5 -5 -5 -7 -4 -3 -2 -2 -2 -5 -5 -6 -5 -4 -3 -4 -6 -4 -3 -3 -4 -5 -4 -4 -3 -3 -3 -2
-13 -14 -14 -16 -2 -1 -4 -5 -5 -3 -2 -3 -5 -7 -7 -4 -4 -4 -5 -5 -5 -4 -2 -2 -1 -3 -4 -4 -4 -4 -2 -2 -3 -5 -4 -3 -2 -3 -4 -4 -4 -3 -2 -2 -2
-13 -13 -13 -14 -8 -1 -2 -0 -0 0 0 -1 -4 -3 -4 -4 -3 -3 -4 -4 -4 -3 -2 -2 -3 -4 -3 -3 -3 -3 -2 -2 -2 -3 -3 -2 -1 -2 -3 -4 -4 -3 -2 -3 -1
-11 -12 -13 -12 -7 -11 -1 1 1 2 2 -1 -2 -3 -3 -4 -3 -3 -4 -4 -4 -2 -3 -2 -3 -4 -3 -3 -3 -1 -4 -3 -3 -1 1 -2 -0 -4 -4 -4 -3 -5 -4 -1 -1
-4 -3 -4 -8 -8 -7 -2 0 2 1 4 -2 -2 -3 -3 -2 -2 -2 -3 -4 -3 -3 -2 -0 -2 -2 -1 -2 -4 -2 -4 -3 -2 -1 0 -0 1 -5 -2 -2 -3 -5 -4 -1 -0
0 0 -1 -2 -4 -5 -4 -0 3 2 8 -0 -0 -1 -1 -1 -1 -2 -3 -4 -4 -3 -3 -3 -3 -3 -3 -4 -5 -3 -1 0 1 0 4 -0 1 -2 -2 -2 -3 -4 -2 1 1
1 2 1 0 -1 -3 -2 1 -1 -1 -4 -2 1 0 -0 -0 -0 -1 -1 -1 0 2 2 -1 -1 -3 -4 -2 -4 -2 -0 3 4 6 4 1 2 -2 -2 -3 -3 -4 -2 1 1
1 1 2 1 1 0 1 2 -3 -5 -4 -1 0 1 1 0 0 1 1 1 -1 -1 1 2 4 -1 -3 -2 -0 -1 -0 2 2 -0 -4 1 3 -2 -2 -2 -1 -1 -1 -0 0
1 1 2 1 2 2 2 -0 -8 -4 -3 1 0 2 1 1 0 1 1 1 -1 -1 1 1 1 -2 -4 -4 -3 -1 1 -1 1 0 3 -1 -3 -2 -2 -2 -2 -2 -1 -0 -0
-4 0 1 3 3 4 2 1 -1 -2 1 -1 -0 -0 -1 -0 1 1 0 -1 0 -2 -3 -1 1 -1 -3 -4 -4 -1 -2 2 2 3 1 -2 -3 0 -0 -1 -2 -1 -2 -1 -1
-15 1 2 3 3 3 3 2 1 -1 0 0 -0 -1 -2 -2 -0 -2 -3 -2 -2 -1 -2 -1 0 -1 -3 -1 -0 -1 0 -0 0 0 1 -1 -3 -3 -2 -1 -1 -2 -2 -2 -1
-7 -2 2 2 3 3 3 1 0 1 0 1 -0 0 0 -1 -0 -1 -1 -3 -3 -2 -0 -2 0 2 -0 -3 -3 -2 -2 -2 1 0 1 1 2 -2 -1 0 -2 -2 -3 -3 -2
-4 3 3 6 6 5 3 3 2 3 2 1 0 -0 -0 3 4 2 1 -1 -1 -2 -1 -1 1 3 1 -0 -0 -0 -1 -2 -1 3 5 4 3 -1 -1 -1 -2 -3 -3 -3 -3
2 1 2 4 2 2 3 3 4 2 3 1 3 0 2 4 2 4 3 1 2 -1 -1 -2 2 4 5 1 -0 3 1 -0 0 5 4 4 2 -1 -1 0 -1 -4 -3 -3 -3
-2 2 -0 1 -3 -5 -7 -2 1 3 -1 -0 1 -0 -0 1 3 5 4 2 1 2 2 3 7 5 4 3 2 3 4 4 3 2 4 5 4 2 1 1 1 -2 -3 -3 -4
-3 -4 -8 -7 -6 -8 -8 -4 -1 -4 -5 -6 -0 -9 -10 -4 -3 -0 2 -2 -0 -0 -2 -2 5 5 6 5 5 6 5 5 5 6 6 5 5 -7 -3 -7 -3 -2 -2 -3 -5
-5 -4 -3 -6 -5 -6 -4 -5 -8 -5 -8 -6 -9 -8 -6 -5 -7 -8 -7 -8 -8 -7 -8 -3 4 5 6 4 6 7 -2 -3 -4 -9 -7 -4 -7 -8 -9 -10 -9 -7 -6 -7 -9
Wind_Speed
5 2 1 1 1 2 3 3 4 4 4 5 6 8 8 7 7 7 6 3 4 4 5 6 7 7 6 5 4 3 4 6 4 5 1 6 8 6 4 9 8 10 6 7 7
5 3 1 1 2 2 3 4 4 4 4 4 4 6 7 6 7 9 7 4 3 5 6 8 9 8 4 4 3 5 4 4 2 3 3 6 9 5 5 10 13 14 16 15 13
7 4 2 1 2 3 3 3 4 4 4 3 3 6 6 5 6 4 5 4 3 5 8 9 9 6 5 4 5 3 5 2 4 7 4 5 6 7 8 11 19 16 19 21 19
9 7 4 3 2 3 3 4 4 4 4 3 2 6 7 5 2 3 3 4 4 5 8 9 8 5 4 5 5 5 9 6 2 5 4 5 4 6 16 17 5 8 10 19 24
13 9 6 4 4 4 4 4 5 4 5 5 6 8 8 4 6 6 5 5 5 5 9 10 8 6 5 4 5 8 5 5 8 5 8 6 12 10 19 20 19 17 13 17 21
18 13 10 8 6 6 6 6 6 5 6 7 9 9 7 6 6 5 6 7 7 7 8 10 5 7 3 4 7 1 7 9 6 9 8 7 7 2 8 6 21 22 21 20 21
19 17 14 9 7 7 7 7 7 7 7 8 9 8 10 11 7 7 5 7 7 7 7 9 9 6 4 3 3 3 6 7 13 8 4 5 10 15 21 11 7 16 20 21 24
19 19 17 11 6 4 6 8 9 9 10 9 8 7 7 9 10 11 8 7 8 6 6 6 6 5 3 2 2 4 3 5 4 8 3 4 14 5 4 12 16 15 18 20 22
19 19 18 14 6 8 9 9 10 10 11 11 11 8 7 7 12 12 10 6 9 8 7 6 6 3 3 4 5 5 8 8 3 10 3 10 11 4 4 9 14 16 19 21 22
19 19 17 15 7 10 8 6 7 10 11 10 12 5 11 6 8 12 11 8 7 9 5 5 3 4 4 7 8 5 6 6 8 5 7 9 21 19 22 20 27 23 21 22 24
20 20 18 15 10 9 8 4 3 3 8 10 6 5 3 8 8 10 10 9 8 5 6 4 7 13 15 14 10 5 9 14 8 3 4 14 20 22 22 21 25 23 23 23 25
20 19 19 17 10 7 7 3 4 5 10 16 24 18 9 7 4 11 11 9 8 9 6 4 13 13 2 4 9 9 11 15 9 4 6 13 20 23 25 23 24 20 16 14 13
20 20 19 18 10 8 7 6 8 9 6 6 7 9 12 13 7 9 16 7 7 8 11 13 1 5 6 6 9 11 14 11 9 2 8 10 17 14 7 4 6 11 11 10 10
21 20 20 18 6 13 6 10 11 9 4 3 3 3 6 6 4 9 16 6 5 8 6 9 2 7 6 9 11 13 9 8 5 3 10 2 11 11 11 13 9 7 11 7 7
21 20 20 18 14 11 9 10 9 4 5 4 2 4 5 4 3 5 11 6 6 7 5 3 7 7 9 8 13 3 2 4 2 6 5 9 7 7 2 7 8 3 4 0 3
22 21 19 18 15 8 9 8 4 3 7 1 3 3 3 4 2 4 3 4 1 3 5 9 0 4 4 3 6 9 4 2 1 3 9 15 13 7 5 8 6 5 3 1 1
22 21 19 17 10 11 8 4 3 5 1 3 3 4 3 5 5 7 6 7 6 4 7 4 7 3 4 5 3 7 5 4 5 5 8 3 8 13 6 3 2 4 3 1 3
22 20 19 17 14 8 3 3 8 2 6 2 1 2 5 6 4 5 4 7 11 5 6 8 9 11 11 13 7 14 8 7 9 7 11 4 9 6 4 1 4 4 5 4 4
23 18 16 13 5 2 2 6 4 4 3 3 1 4 4 2 3 5 8 8 6 16 10 6 8 3 6 4 5 7 10 3 8 7 8 11 16 11 5 6 7 8 8 8 7
24 20 10 4 2 2 3 4 4 3 3 1 4 4 6 3 4 5 5 4 4 11 8 3 10 5 5 3 1 5 4 4 5 8 16 15 17 13 6 13 13 12 14 11 9
17 8 4 4 2 3 5 6 5 4 2 3 5 7 8 9 8 10 9 2 4 3 8 4 7 7 6 9 12 5 6 6 5 9 15 18 14 1 1 4 11 14 16 16 13
8 3 3 10 4 1 3 2 3 3 4 6 4 9 14 13 15 15 20 17 5 8 7 8 5 13 19 7 3 13 18 20 13 18 12 16 21 3 4 1 4 9 14 14 13
9 5 9 5 3 1 6 5 4 4 4 4 4 3 2 7 7 12 11 6 13 8 6 6 7 13 17 8 2 8 15 17 18 11 23 17 18 3 3 4 8 12 17 17 17
5 4 6 8 8 5 6 6 7 13 2 10 7 12 8 6 8 10 9 4 21 5 7 2 13 16 16 17 3 6 10 14 17 12 19 21 25 27 22 14 11 13 18 22 21
7 4 3 4 4 11 7 7 10 6 10 14 1 10 8 5 6 5 7 9 12 15 8 4 8 16 23 26 20 19 20 18 16 18 15 22 24 28 25 18 15 21 19 20 19
5 6 8 6 9 9 7 7 8 7 4 8 6 14 9 8 11 16 8 10 8 8 11 11 6 7 12 23 22 23 26 28 30 31 32 31 30 25 23 31 26 2 14 16 15
8 7 3 5 5 4 3 8 8 9 7 7 11 13 12 11 20 26 27 29 24 20 18 13 6 6 15 18 16 14 13 13 16 19 11 9 12 17 19 20 29 28 23 18 16
Wind_Direction
57 70 114 178 249 270 259 267 257 248 251 255 264 282 296 297 284 276 303 272 272 213 183 174 174 181 183 199 195 180 247 257 254 206 174 166 204 199 221 225 208 209 231 217 200
39 38 36 287 265 255 255 260 256 249 248 260 279 307 305 301 282 267 265 275 245 194 183 180 175 179 185 180 183 224 250 254 281 239 243 192 219 216 216 218 234 231 230 225 215
25 17 357 298 265 253 262 268 258 243 239 246 315 341 326 321 303 254 215 237 215 195 191 187 191 184 198 184 195 191 247 249 259 236 242 232 233 223 236 244 240 234 226 224 217
23 11 358 330 284 269 270 260 247 236 235 255 320 337 332 298 291 201 230 220 207 200 193 191 192 183 213 214 191 238 247 242 273 220 207 239 260 246 230 242 239 232 229 221 219
21 13 356 324 291 276 264 253 240 233 255 252 280 313 316 282 253 236 242 224 215 208 205 203 194 193 224 208 191 238 264 232 245 239 236 251 247 260 257 254 246 248 242 225 223
23 15 358 331 303 279 262 247 237 252 262 265 280 294 291 257 243 235 231 226 223 221 218 211 223 219 248 227 219 302 264 264 257 240 238 239 259 221 258 251 232 232 234 229 227
17 16 5 347 308 276 265 256 249 256 257 271 282 278 276 258 242 228 235 228 225 222 220 218 223 195 184 213 235 272 283 255 233 223 242 218 254 234 252 248 227 221 229 230 233
9 9 9 358 355 324 285 267 260 259 258 263 266 290 260 258 232 226 229 223 213 209 210 201 197 199 212 164 214 245 241 260 135 174 190 203 267 234 221 221 231 228 229 230 228
5 3 5 8 357 338 310 280 264 260 260 258 266 265 261 244 224 221 219 221 210 208 199 193 178 180 161 227 246 210 266 231 239 201 167 217 276 257 210 215 243 238 238 236 232
4 1 359 360 345 348 339 315 280 261 255 253 242 263 234 228 210 208 210 210 197 191 175 184 175 218 201 205 247 234 234 237 251 173 218 234 261 267 265 259 264 264 251 241 232
3 2 358 353 348 348 350 336 331 270 230 217 210 208 153 195 191 197 204 197 183 190 209 185 218 220 228 223 271 282 268 265 259 174 250 252 267 277 276 263 264 261 256 250 240
358 359 358 353 345 349 355 354 342 301 294 257 243 236 224 197 203 215 197 184 189 214 157 194 241 246 199 218 228 238 259 262 271 199 222 278 272 278 276 265 262 263 255 243 236
352 352 355 353 345 350 344 352 336 330 265 273 235 230 230 223 226 208 191 194 211 209 206 230 241 122 185 188 208 229 237 258 267 246 236 285 273 253 263 232 224 238 247 245 239
348 347 347 354 353 338 329 336 337 337 278 207 202 218 183 174 229 198 190 192 202 235 208 245 186 207 204 230 210 254 229 236 238 261 278 296 287 265 254 264 258 250 232 238 247
346 344 344 346 334 327 321 328 337 346 299 98 154 172 177 196 132 192 190 197 227 190 189 222 181 191 215 230 190 266 107 179 209 251 302 221 259 271 187 257 213 175 135 177 248
342 340 338 336 327 318 319 325 329 230 246 194 135 175 178 207 201 142 178 204 178 215 233 260 3 223 236 114 184 138 118 108 147 239 257 250 221 266 232 230 187 151 137 89 244
335 333 332 329 314 307 307 313 251 225 42 186 215 190 221 202 203 195 180 189 209 202 225 202 220 187 182 177 138 193 181 261 238 207 256 145 210 257 243 210 246 209 215 215 204
331 326 322 317 306 295 285 220 236 216 252 28 133 168 224 173 215 185 201 234 225 229 271 267 271 187 179 218 197 193 219 219 253 251 281 160 236 250 235 285 229 215 197 197 197
337 328 316 308 293 278 183 221 246 227 352 323 246 232 223 230 243 207 223 242 238 196 218 221 248 146 197 167 188 164 208 263 263 253 269 253 255 247 192 226 210 203 195 195 187
328 333 294 253 221 205 210 256 264 233 323 255 269 223 270 252 225 217 223 168 233 206 234 255 276 183 135 149 196 221 138 173 205 257 254 258 263 261 231 230 220 215 210 199 192
334 319 227 218 243 208 240 238 258 278 233 252 276 278 268 281 256 259 262 235 223 207 214 238 231 236 151 197 207 178 215 226 293 248 258 266 261 308 272 277 222 222 208 197 190
11 293 272 300 270 247 239 236 312 293 312 284 248 258 263 276 271 257 256 246 189 170 204 218 255 255 247 224 286 268 242 232 236 240 239 259 264 351 279 219 263 225 197 191 185
354 308 3 4 284 305 341 316 295 307 337 322 285 252 13 302 296 256 270 294 267 229 256 189 232 267 260 223 189 229 230 240 246 276 251 256 261 140 158 233 238 212 190 184 180
26 351 346 35 61 29 7 311 343 342 356 350 341 36 353 320 256 271 273 351 340 275 358 26 264 247 256 265 291 241 236 231 233 246 257 253 270 272 268 248 222 205 198 190 184
26 48 30 335 321 334 312 265 300 338 353 17 117 75 17 311 321 314 2 339 321 314 331 314 251 257 261 269 276 268 266 263 250 249 251 261 258 266 286 291 282 217 191 183 179
38 6 346 301 316 333 352 15 341 345 302 309 296 319 302 253 267 290 293 311 283 304 329 319 279 281 263 258 260 261 268 272 267 269 266 266 265 11 351 16 8 208 179 170 164
41 13 346 324 346 329 27 351 312 338 300 257 325 313 300 323 310 289 270 265 254 258 268 262 264 271 269 280 278 257 349 348 54 31 336 17 336 351 17 32 25 38 58 67 83
Height
1507 1507 1507 1508 1508 1508 1509 1508 1509 1508 1508 1508 1508 1507 1507 1506 1506 1505 1505 1506 1504 1504 1505 1506 1508 1509 1510 1510 1510 1510 1507 1500 1499 1501 1495 1501 1502 1503 1502 1503 1503 1502 1502 1501 1501
1508 1507 1507 1507 1507 1508 1508 1508 1507 1507 1507 1507 1507 1506 1504 1504 1504 1503 1504 1503 1503 1504 1505 1506 1507 1508 1510 1510 1510 1508 1505 1498 1498 1498 1497 1500 1501 1500 1502 1500 1499 1498 1497 1498 1499
1508 1507 1507 1506 1506 1507 1507 1507 1507 1506 1506 1506 1506 1504 1503 1503 1503 1501 1501 1502 1502 1503 1504 1505 1507 1508 1508 1508 1507 1507 1500 1499 1498 1499 1500 1499 1500 1499 1497 1494 1491 1491 1494 1494 1496
1508 1507 1506 1506 1505 1506 1506 1506 1506 1506 1506 1505 1504 1504 1503 1503 1504 1500 1501 1501 1501 1502 1503 1504 1506 1506 1505 1504 1505 1505 1500 1500 1499 1499 1500 1499 1497 1495 1493 1487 1488 1489 1490 1490 1491
1509 1507 1506 1505 1505 1505 1505 1504 1505 1505 1504 1503 1503 1503 1502 1503 1501 1499 1499 1500 1500 1501 1502 1503 1504 1504 1502 1502 1504 1502 1498 1499 1498 1498 1498 1497 1494 1494 1485 1484 1486 1485 1486 1486 1487
1509 1507 1506 1505 1504 1503 1503 1503 1503 1503 1502 1502 1501 1501 1502 1503 1498 1498 1498 1499 1499 1500 1501 1501 1502 1502 1502 1501 1501 1499 1498 1497 1496 1496 1495 1494 1492 1493 1478 1477 1478 1480 1481 1482 1483
1510 1507 1505 1504 1503 1502 1502 1502 1501 1501 1501 1500 1500 1499 1499 1499 1496 1496 1497 1497 1498 1499 1499 1499 1500 1501 1501 1500 1500 1499 1497 1492 1490 1492 1492 1493 1487 1481 1473 1475 1475 1474 1476 1477 1477
1511 1508 1505 1503 1501 1500 1500 1500 1500 1499 1499 1499 1498 1498 1496 1493 1493 1495 1495 1496 1496 1497 1498 1498 1498 1499 1500 1500 1500 1497 1497 1487 1486 1490 1490 1492 1470 1467 1469 1471 1471 1472 1472 1471 1471
1511 1508 1505 1502 1501 1500 1499 1498 1497 1497 1497 1497 1497 1497 1494 1490 1491 1492 1494 1494 1495 1496 1497 1497 1498 1498 1500 1496 1493 1493 1481 1484 1481 1487 1488 1489 1468 1464 1467 1468 1467 1467 1467 1466 1467
1511 1508 1505 1502 1500 1499 1497 1496 1495 1495 1494 1494 1494 1499 1490 1488 1488 1490 1491 1492 1494 1495 1497 1497 1497 1494 1495 1492 1485 1478 1485 1481 1479 1483 1487 1483 1470 1463 1464 1465 1459 1459 1460 1460 1459
1511 1508 1505 1502 1500 1498 1497 1495 1497 1496 1492 1487 1485 1484 1484 1486 1487 1488 1489 1491 1493 1494 1492 1494 1492 1484 1477 1480 1478 1484 1482 1478 1473 1482 1483 1474 1466 1455 1454 1456 1452 1450 1451 1450 1451
1511 1508 1505 1502 1499 1498 1497 1496 1495 1495 1488 1481 1480 1481 1482 1483 1484 1485 1488 1491 1490 1488 1491 1493 1484 1475 1482 1484 1485 1484 1481 1475 1474 1482 1483 1468 1462 1451 1443 1442 1442 1443 1442 1442 1444
1510 1507 1504 1501 1499 1498 1497 1496 1494 1492 1489 1476 1474 1476 1480 1482 1480 1480 1484 1485 1485 1486 1485 1479 1475 1479 1479 1482 1483 1480 1476 1469 1474 1479 1479 1476 1451 1441 1434 1437 1438 1438 1438 1439 1439
1510 1506 1503 1501 1501 1497 1496 1495 1492 1490 1486 1473 1474 1474 1476 1477 1478 1477 1479 1483 1483 1480 1483 1479 1476 1477 1478 1476 1476 1473 1469 1475 1478 1477 1466 1475 1447 1431 1429 1428 1432 1433 1434 1436 1436
1509 1505 1503 1500 1499 1497 1497 1494 1492 1491 1495 1474 1475 1475 1474 1476 1477 1477 1477 1479 1476 1477 1481 1468 1474 1477 1476 1469 1472 1468 1476 1477 1479 1475 1480 1465 1470 1422 1434 1426 1425 1431 1433 1434 1435
1508 1505 1502 1499 1497 1496 1494 1493 1492 1492 1497 1471 1473 1474 1475 1474 1475 1476 1477 1478 1478 1477 1476 1470 1474 1472 1465 1471 1473 1477 1477 1480 1482 1478 1470 1448 1457 1419 1422 1420 1424 1430 1432 1432 1432
1506 1503 1500 1497 1496 1494 1493 1493 1493 1490 1472 1470 1469 1472 1472 1470 1471 1472 1473 1474 1469 1473 1468 1467 1465 1465 1467 1468 1475 1474 1472 1469 1467 1477 1454 1462 1462 1420 1418 1424 1425 1427 1432 1432 1431
1502 1499 1497 1494 1492 1491 1492 1493 1494 1474 1470 1469 1469 1471 1468 1466 1467 1469 1469 1465 1465 1466 1462 1460 1458 1458 1459 1455 1454 1466 1462 1460 1458 1446 1433 1465 1440 1411 1419 1425 1428 1429 1430 1430 1430
1498 1495 1493 1490 1489 1490 1493 1489 1475 1473 1472 1471 1470 1468 1466 1467 1467 1467 1464 1456 1451 1456 1458 1456 1452 1454 1455 1455 1454 1463 1464 1453 1452 1446 1452 1423 1409 1409 1421 1422 1425 1426 1427 1428 1428
1493 1490 1488 1488 1488 1489 1489 1484 1478 1475 1474 1472 1471 1464 1463 1461 1466 1465 1456 1451 1451 1450 1450 1444 1447 1447 1454 1456 1457 1454 1453 1456 1455 1452 1440 1411 1408 1404 1414 1413 1417 1422 1423 1425 1425
1490 1488 1485 1486 1487 1487 1483 1479 1476 1473 1473 1473 1468 1466 1462 1463 1462 1459 1448 1449 1449 1450 1453 1449 1448 1440 1453 1449 1439 1456 1449 1451 1449 1432 1427 1416 1399 1390 1399 1402 1408 1412 1418 1421 1424
1489 1488 1485 1485 1487 1485 1479 1478 1478 1473 1473 1472 1469 1466 1463 1461 1457 1455 1448 1447 1446 1447 1447 1443 1438 1431 1425 1427 1437 1435 1425 1427 1431 1422 1419 1408 1391 1396 1402 1406 1409 1410 1416 1420 1423
1492 1490 1487 1485 1481 1481 1482 1480 1478 1475 1473 1469 1466 1466 1466 1465 1465 1449 1446 1446 1445 1445 1438 1437 1434 1429 1418 1427 1439 1433 1423 1422 1414 1418 1413 1412 1387 1401 1405 1405 1406 1407 1412 1416 1419
1496 1493 1490 1489 1493 1494 1494 1486 1482 1480 1477 1478 1474 1472 1476 1468 1459 1453 1448 1447 1450 1448 1445 1444 1438 1433 1418 1407 1417 1428 1422 1421 1420 1420 1405 1398 1394 1384 1389 1398 1400 1406 1410 1410 1412
1499 1501 1502 1495 1493 1496 1494 1489 1485 1487 1483 1481 1477 1485 1487 1478 1471 1460 1461 1461 1455 1451 1446 1445 1436 1430 1422 1417 1417 1419 1418 1415 1417 1411 1411 1401 1399 1390 1392 1392 1390 1397 1404 1409 1413
1504 1506 1503 1502 1500 1495 1491 1490 1490 1492 1491 1483 1482 1480 1480 1480 1476 1474 1470 1466 1463 1451 1449 1451 1439 1435 1426 1419 1417 1413 1410 1409 1405 1403 1397 1392 1389 1441 1422 1411 1404 1403 1406 1411 1416
1508 1509 1508 1503 1500 1498 1497 1499 1494 1495 1488 1485 1485 1482 1476 1473 1473 1469 1464 1459 1452 1447 1445 1443 1443 1431 1413 1409 1407 1403 1449 1440 1440 1461 1455 1440 1456 1447 1436 1429 1426 1418 1418 1424 1428